EW0139 Weather Reports


Display with metric or nautical units.
time (UTC)temp
F
wind
direction
speed
MPH
gust
MPH
rain 1hr
in
rain 24hr
in
rain mn
in
humidity
%
barometer
mb
20260903122320 50 277 0.0 0.0 0.00 0.00 0.00 80 1006.6
20260903120759 50 277 0.0 0.0 0.00 0.00 0.00 81 1006.6
20260903115243 50 277 0.0 0.0 0.00 0.00 0.00 80 1006.5
20260903113743 51 277 0.0 3.0 0.00 0.00 0.00 79 1006.5
20260903112241 50 277 0.0 1.0 0.00 0.00 0.00 79 1006.3
20260903110745 52 277 0.0 1.0 0.00 0.00 0.00 78 1006.0
20260903105308 52 277 0.0 2.0 0.00 0.00 0.00 77 1006.1
20260903103747 53 288 3.0 5.0 0.00 0.00 0.00 76 1006.0
20260903102255 55 306 0.0 5.0 0.00 0.00 0.00 74 1006.0
20260903100757 55 310 4.0 7.0 0.00 0.00 0.00 73 1005.6
20260903095241 57 279 5.0 8.0 0.00 0.00 0.00 71 1005.6
20260903093742 58 274 7.0 9.0 0.00 0.00 0.00 70 1005.6
20260903092245 58 283 5.0 8.0 0.00 0.00 0.00 70 1005.7
20260903090813 57 298 7.0 7.0 0.00 0.00 0.00 75 1005.8
20260903085254 58 300 0.0 0.0 0.00 0.00 0.00 73 1005.9
20260903083757 58 300 0.0 6.0 0.00 0.00 0.00 74 1006.0
20260903082241 59 79 0.0 1.0 0.00 0.00 0.00 74 1006.0
20260903080801 60 79 0.0 2.0 0.00 0.00 0.00 72 1005.7
20260903075307 61 79 0.0 1.0 0.00 0.00 0.00 72 1005.9
20260903073746 62 79 3.0 4.0 0.00 0.00 0.00 71 1006.0
20260903072248 62 173 1.0 5.0 0.00 0.00 0.00 70 1006.3
20260903070751 63 156 3.0 4.0 0.00 0.00 0.00 68 1006.4
20260903065252 63 161 3.0 6.0 0.00 0.00 0.00 69 1006.5
20260903063752 63 198 3.0 9.0 0.00 0.00 0.00 69 1006.2
20260903062258 64 305 1.0 4.0 0.00 0.00 0.00 69 1005.4
20260903060758 64 308 5.0 5.0 0.00 0.00 0.00 68 1004.9
20260903055243 64 33 0.0 5.0 0.00 0.00 0.00 67 1004.7
20260903053747 65 16 4.0 13.0 0.00 0.00 0.00 65 1004.4
20260903052248 67 52 12.0 14.0 0.00 0.00 0.00 57 1004.9
20260903050757 68 92 7.0 9.0 0.00 0.00 0.00 54 1005.2
20260903045257 68 357 7.0 10.0 0.00 0.00 0.00 54 1003.2
20260903043820 68 352 6.0 13.0 0.00 0.00 0.00 53 1004.2
20260903042244 68 298 3.0 15.0 0.00 0.00 0.00 54 1004.8
20260903040744 69 273 16.0 20.0 0.00 0.00 0.00 48 1003.4
20260903035249 71 258 18.0 24.0 0.00 0.00 0.00 46 1004.3
20260903033751 70 263 23.0 29.0 0.00 0.00 0.00 46 1005.2
20260903032311 72 289 13.0 22.0 0.00 0.00 0.00 42 1003.9
20260903030755 75 288 29.0 29.0 0.00 0.00 0.00 40 1003.0
20260903025316 78 85 5.0 12.0 0.00 0.00 0.00 36 1002.4
20260903023757 78 83 8.0 10.0 0.00 0.00 0.00 36 1001.8
20260903022241 79 83 6.0 11.0 0.00 0.00 0.00 36 1001.6
20260903020742 80 86 5.0 12.0 0.00 0.00 0.00 35 1001.6
20260903015251 82 76 6.0 11.0 0.00 0.00 0.00 33 1001.7
20260903013751 82 98 6.0 10.0 0.00 0.00 0.00 33 1001.8
20260903012254 83 102 9.0 12.0 0.00 0.00 0.00 32 1001.9
20260903010742 85 102 9.0 9.0 0.00 0.00 0.00 31 1002.9
20260903005245 86 107 9.0 12.0 0.00 0.00 0.00 31 1003.0
20260903003751 87 113 10.0 13.0 0.00 0.00 0.00 31 1003.0
20260903002253 87 102 8.0 12.0 0.00 0.00 0.00 31 1003.0
20260903000752 87 113 10.0 15.0 0.00 0.00 0.00 29 1003.1
20260902235240 88 113 16.0 17.0 0.00 0.00 0.00 28 1003.0
20260902233802 89 113 13.0 21.0 0.00 0.00 0.00 29 1002.9
20260902232249 91 101 16.0 21.0 0.00 0.00 0.00 28 1003.0
20260902230751 90 106 13.0 21.0 0.00 0.00 0.00 29 1003.0
20260902225313 90 115 19.0 19.0 0.00 0.00 0.00 30 1003.3
20260902223737 91 113 17.0 20.0 0.00 0.00 0.00 29 1003.5
20260902222243 89 114 16.0 18.0 0.00 0.00 0.00 31 1003.5
20260902220748 88 100 9.0 20.0 0.00 0.00 0.00 32 1003.9
20260902215253 87 115 15.0 20.0 0.00 0.00 0.00 32 1003.9
20260902213755 88 118 19.0 23.0 0.00 0.00 0.00 32 1004.2
20260902212305 88 102 15.0 20.0 0.00 0.00 0.00 33 1004.2
20260902210745 88 100 13.0 22.0 0.00 0.00 0.00 33 1004.3
20260902205246 87 88 14.0 18.0 0.00 0.00 0.00 34 1003.6
20260902203755 87 123 17.0 20.0 0.00 0.00 0.00 34 1003.7
20260902202240 89 113 9.0 21.0 0.00 0.00 0.00 33 1003.9
20260902200750 88 117 16.0 26.0 0.00 0.00 0.00 33 1004.1
20260902195249 89 92 20.0 28.0 0.00 0.00 0.00 35 1004.3
20260902193749 87 95 17.0 24.0 0.00 0.00 0.00 38 1004.5
20260902192255 87 125 15.0 26.0 0.00 0.00 0.00 37 1004.7
20260902190755 87 146 20.0 28.0 0.00 0.00 0.00 38 1004.7
20260902185238 86 112 13.0 25.0 0.00 0.00 0.00 39 1004.8
20260902183742 86 89 12.0 28.0 0.00 0.00 0.00 41 1005.1
20260902182242 85 92 19.0 26.0 0.00 0.00 0.00 42 1005.2
20260902180747 84 88 18.0 24.0 0.00 0.00 0.00 44 1005.6
20260902175248 81 79 14.0 25.0 0.00 0.00 0.00 46 1005.8
20260902173752 80 75 15.0 24.0 0.00 0.00 0.00 47 1006.1
20260902172320 79 69 16.0 27.0 0.00 0.00 0.00 47 1006.4
20260902170801 77 75 12.0 25.0 0.00 0.00 0.00 49 1006.5
20260902165249 77 104 15.0 19.0 0.00 0.00 0.00 48 1006.6
20260902163749 76 107 13.0 24.0 0.00 0.00 0.00 49 1006.8
20260902162248 75 95 12.0 22.0 0.00 0.00 0.00 50 1006.9
20260902160752 75 79 22.0 22.0 0.00 0.00 0.00 50 1007.0
20260902155252 73 95 15.0 22.0 0.00 0.00 0.00 52 1007.1
20260902153753 71 92 15.0 19.0 0.00 0.00 0.00 53 1007.3
20260902152258 71 84 11.0 14.0 0.00 0.00 0.00 54 1007.5
20260902150819 70 92 13.0 19.0 0.00 0.00 0.00 55 1007.9
20260902145305 69 100 14.0 20.0 0.00 0.00 0.00 56 1007.8
20260902143745 68 81 12.0 17.0 0.00 0.00 0.00 57 1007.8
20260902142245 67 74 10.0 22.0 0.00 0.00 0.00 57 1007.9
20260902140752 67 61 10.0 21.0 0.00 0.00 0.00 59 1007.9
20260902135253 65 46 9.0 18.0 0.00 0.00 0.00 60 1008.2
20260902133755 64 59 16.0 16.0 0.00 0.00 0.00 61 1008.2
20260902132258 63 42 6.0 15.0 0.00 0.00 0.00 62 1008.3
20260902130758 62 69 3.0 12.0 0.00 0.00 0.00 63 1008.4
20260902125241 62 67 5.0 13.0 0.00 0.00 0.00 62 1008.5
20260902123741 63 42 7.0 12.0 0.00 0.00 0.00 61 1008.6